SHT22B EGLL-EGJB

Flight info

Callsign SHT22B
Flight time 0h 37m
Altitude 20000
Route GASGU N514 EVTES N621 SAM/N0383F200 N63 LELNA
Aircraft A319/M-SDE3FGHIRWY/LB1

Departure

Time 2026-04-30 11:53
Airport London Heathrow Airport (EGLL)

Arrival

Time 2026-04-30 12:30
Airport Guernsey Airport (EGJB)
Time Latitude Longitude Altitude Speed Heading
2026-04-30 11:48 51.46598 -0.48467 86 ft 0 kts 179°
2026-04-30 11:49 51.46595 -0.48467 86 ft 2 kts 179°
2026-04-30 11:49 51.46551 -0.48466 87 ft 9 kts 179°
2026-04-30 11:50 51.46485 -0.48456 89 ft 9 kts 150°
2026-04-30 11:50 51.46478 -0.48426 89 ft 0 kts 90°
2026-04-30 11:52 51.46479 -0.48347 87 ft 26 kts 90°
2026-04-30 11:52 51.46480 -0.47726 86 ft 84 kts 90°
2026-04-30 11:52 51.46485 -0.46487 91 ft 136 kts 90°
2026-04-30 11:53 51.46492 -0.44860 539 ft 148 kts 91°
2026-04-30 11:53 51.46513 -0.43213 1296 ft 148 kts 90°
2026-04-30 11:53 51.46412 -0.41501 1741 ft 167 kts 110°
2026-04-30 11:53 51.45732 -0.39809 2191 ft 193 kts 124°
2026-04-30 11:54 51.44904 -0.37943 2716 ft 218 kts 124°
2026-04-30 11:54 51.43992 -0.35861 3487 ft 235 kts 125°
2026-04-30 11:54 51.42864 -0.34015 4559 ft 239 kts 144°
2026-04-30 11:54 51.41331 -0.32938 5613 ft 246 kts 165°
2026-04-30 11:55 51.39598 -0.32891 6571 ft 257 kts 188°
2026-04-30 11:55 51.37923 -0.34017 7451 ft 270 kts 211°
2026-04-30 11:55 51.36477 -0.36024 8356 ft 278 kts 218°
2026-04-30 11:55 51.35039 -0.38124 9276 ft 283 kts 218°
2026-04-30 11:56 51.33570 -0.40269 10169 ft 288 kts 218°
2026-04-30 11:56 51.32067 -0.42514 10667 ft 308 kts 222°
2026-04-30 11:56 51.30722 -0.45379 10986 ft 335 kts 236°
2026-04-30 11:56 51.29749 -0.48855 11609 ft 349 kts 247°
2026-04-30 11:57 51.28989 -0.52570 12364 ft 354 kts 250°
2026-04-30 11:57 51.28292 -0.56367 13132 ft 359 kts 251°
2026-04-30 11:57 51.27608 -0.60221 13879 ft 363 kts 251°
2026-04-30 11:57 51.26898 -0.64110 14561 ft 366 kts 250°
2026-04-30 11:58 51.26162 -0.68020 15261 ft 369 kts 249°
2026-04-30 11:58 51.25406 -0.71946 15961 ft 371 kts 249°
2026-04-30 11:58 51.24634 -0.75892 16657 ft 374 kts 248°
2026-04-30 11:58 51.23851 -0.79863 17357 ft 376 kts 248°
2026-04-30 11:59 51.23061 -0.83858 18055 ft 379 kts 248°
2026-04-30 11:59 51.22274 -0.87837 18711 ft 381 kts 248°
2026-04-30 11:59 51.21473 -0.91884 19285 ft 385 kts 248°
2026-04-30 11:59 51.20453 -0.95816 19827 ft 384 kts 237°
2026-04-30 12:00 51.19023 -0.99404 20113 ft 381 kts 227°
2026-04-30 12:00 51.17407 -1.02719 20186 ft 377 kts 226°
2026-04-30 12:00 51.15797 -1.06011 20193 ft 375 kts 226°
2026-04-30 12:00 51.14199 -1.09284 20195 ft 374 kts 226°
2026-04-30 12:01 51.12600 -1.12556 20199 ft 374 kts 226°
2026-04-30 12:01 51.11002 -1.15827 20195 ft 374 kts 226°
2026-04-30 12:01 51.09401 -1.19090 20197 ft 373 kts 225°
2026-04-30 12:01 51.07598 -1.22005 20197 ft 367 kts 214°
2026-04-30 12:02 51.05531 -1.24326 20194 ft 363 kts 207°
2026-04-30 12:02 51.03401 -1.26480 20192 ft 363 kts 207°
2026-04-30 12:02 51.01273 -1.28635 20189 ft 362 kts 207°
2026-04-30 12:02 50.99150 -1.30791 20188 ft 362 kts 207°
2026-04-30 12:03 50.97026 -1.32956 20190 ft 362 kts 207°
2026-04-30 12:03 50.92649 -1.36806 20185 ft 359 kts 202°
2026-04-30 12:03 50.90423 -1.38590 20188 ft 359 kts 202°
2026-04-30 12:04 50.88191 -1.40374 20188 ft 359 kts 202°
2026-04-30 12:04 50.85960 -1.42152 20200 ft 359 kts 201°
2026-04-30 12:04 50.83729 -1.43927 20199 ft 359 kts 201°
2026-04-30 12:04 50.81494 -1.45707 20197 ft 359 kts 201°
2026-04-30 12:05 50.79267 -1.47482 20193 ft 359 kts 201°
2026-04-30 12:05 50.77036 -1.49255 20191 ft 359 kts 201°
2026-04-30 12:05 50.74799 -1.51030 20176 ft 359 kts 201°
2026-04-30 12:05 50.72568 -1.52797 20175 ft 359 kts 201°
2026-04-30 12:06 50.70333 -1.54561 20167 ft 359 kts 201°
2026-04-30 12:06 50.68094 -1.56331 20165 ft 359 kts 201°
2026-04-30 12:06 50.65891 -1.58073 20166 ft 359 kts 201°
2026-04-30 12:06 50.63658 -1.59837 20184 ft 359 kts 201°
2026-04-30 12:07 50.61421 -1.61604 20188 ft 360 kts 201°
2026-04-30 12:07 50.59184 -1.63367 20185 ft 360 kts 201°
2026-04-30 12:07 50.56946 -1.65127 20177 ft 360 kts 201°
2026-04-30 12:07 50.54708 -1.66883 20175 ft 359 kts 201°
2026-04-30 12:08 50.52469 -1.68634 20170 ft 360 kts 201°
2026-04-30 12:08 50.50228 -1.70388 20169 ft 360 kts 201°
2026-04-30 12:08 50.47992 -1.72145 20166 ft 360 kts 201°
2026-04-30 12:08 50.45754 -1.73903 20165 ft 360 kts 201°
2026-04-30 12:09 50.43516 -1.75657 20162 ft 360 kts 201°
2026-04-30 12:09 50.41278 -1.77407 20162 ft 360 kts 201°
2026-04-30 12:09 50.39038 -1.79152 20171 ft 360 kts 201°
2026-04-30 12:09 50.36797 -1.80896 20170 ft 360 kts 201°
2026-04-30 12:10 50.34558 -1.82637 20167 ft 360 kts 201°
2026-04-30 12:10 50.32314 -1.84381 20178 ft 360 kts 201°
2026-04-30 12:10 50.30075 -1.86126 20174 ft 359 kts 201°
2026-04-30 12:10 50.27831 -1.87873 20173 ft 359 kts 200°
2026-04-30 12:11 50.25594 -1.89605 20174 ft 358 kts 200°
2026-04-30 12:11 50.23358 -1.91333 20172 ft 358 kts 200°
2026-04-30 12:11 50.21880 -1.92473 20166 ft 358 kts 200°
2026-04-30 12:11 50.18892 -1.94778 20164 ft 358 kts 200°
2026-04-30 12:12 50.17414 -1.95919 20170 ft 358 kts 201°
2026-04-30 12:12 50.14453 -1.98208 20167 ft 358 kts 201°
2026-04-30 12:12 50.12220 -1.99928 20162 ft 359 kts 201°
2026-04-30 12:12 50.09982 -2.01650 20157 ft 358 kts 201°
2026-04-30 12:13 50.08471 -2.02811 20154 ft 358 kts 201°
2026-04-30 12:13 50.06236 -2.04525 20152 ft 358 kts 201°
2026-04-30 12:13 50.03996 -2.06241 20146 ft 359 kts 201°
2026-04-30 12:13 50.01759 -2.07956 20146 ft 359 kts 201°
2026-04-30 12:14 49.99537 -2.09733 20144 ft 362 kts 205°
2026-04-30 12:14 49.97501 -2.12090 20144 ft 369 kts 217°
2026-04-30 12:14 49.95740 -2.15021 20099 ft 370 kts 223°
2026-04-30 12:14 49.94083 -2.17947 19858 ft 362 kts 223°
2026-04-30 12:15 49.92431 -2.20853 19585 ft 355 kts 223°
2026-04-30 12:15 49.90800 -2.23705 19151 ft 352 kts 222°
2026-04-30 12:15 49.89180 -2.26530 18699 ft 350 kts 222°
2026-04-30 12:15 49.87564 -2.29342 18225 ft 348 kts 223°
2026-04-30 12:16 49.85962 -2.32131 17748 ft 344 kts 223°
2026-04-30 12:16 49.84377 -2.34888 17299 ft 340 kts 223°
2026-04-30 12:16 49.82801 -2.37601 16858 ft 338 kts 221°
2026-04-30 12:16 49.81174 -2.40232 16418 ft 338 kts 220°
2026-04-30 12:17 49.77901 -2.45435 15574 ft 335 kts 220°
2026-04-30 12:17 49.76273 -2.48001 15157 ft 333 kts 220°
2026-04-30 12:17 49.74651 -2.50547 14747 ft 332 kts 220°
2026-04-30 12:18 49.73031 -2.53081 14352 ft 328 kts 220°
2026-04-30 12:18 49.71436 -2.55566 14004 ft 324 kts 220°
2026-04-30 12:18 49.69858 -2.58006 13619 ft 319 kts 220°
2026-04-30 12:18 49.68295 -2.60416 13222 ft 315 kts 220°
2026-04-30 12:19 49.66771 -2.62763 12821 ft 312 kts 220°
2026-04-30 12:19 49.65242 -2.65114 12437 ft 309 kts 220°
2026-04-30 12:19 49.63722 -2.67447 12051 ft 306 kts 220°
2026-04-30 12:19 49.62220 -2.69750 11690 ft 304 kts 220°
2026-04-30 12:20 49.60722 -2.72046 11271 ft 302 kts 220°
2026-04-30 12:20 49.59250 -2.74302 10843 ft 295 kts 220°
2026-04-30 12:20 49.57807 -2.76507 10356 ft 288 kts 220°
2026-04-30 12:20 49.56396 -2.78660 9871 ft 283 kts 220°
2026-04-30 12:21 49.55011 -2.80772 9346 ft 278 kts 220°
2026-04-30 12:21 49.53645 -2.82849 8828 ft 273 kts 220°
2026-04-30 12:21 49.52307 -2.84881 8399 ft 266 kts 220°
2026-04-30 12:21 49.51011 -2.86858 8011 ft 258 kts 220°
2026-04-30 12:22 49.49751 -2.88782 7641 ft 252 kts 220°
2026-04-30 12:22 49.48523 -2.90659 7272 ft 246 kts 220°
2026-04-30 12:22 49.47339 -2.92458 6913 ft 240 kts 220°
2026-04-30 12:22 49.46172 -2.94230 6555 ft 232 kts 220°
2026-04-30 12:23 49.45045 -2.95945 6181 ft 224 kts 220°
2026-04-30 12:23 49.43953 -2.97608 5798 ft 218 kts 220°
2026-04-30 12:23 49.42878 -2.99236 5427 ft 217 kts 218°
2026-04-30 12:23 49.41594 -3.00288 5087 ft 207 kts 186°
2026-04-30 12:24 49.40256 -2.99943 4958 ft 192 kts 150°
2026-04-30 12:24 49.39433 -2.98453 4867 ft 186 kts 114°
2026-04-30 12:24 49.39448 -2.96471 4692 ft 195 kts 72°
2026-04-30 12:24 49.40215 -2.94719 4488 ft 198 kts 60°
2026-04-30 12:25 49.40964 -2.92961 4261 ft 196 kts 62°
2026-04-30 12:25 49.41700 -2.91204 4047 ft 195 kts 62°
2026-04-30 12:25 49.42333 -2.89389 3820 ft 190 kts 75°
2026-04-30 12:25 49.42617 -2.87437 3600 ft 186 kts 87°
2026-04-30 12:26 49.42740 -2.85461 3367 ft 185 kts 91°
2026-04-30 12:26 49.42816 -2.83504 3125 ft 182 kts 92°
2026-04-30 12:26 49.42879 -2.81557 2883 ft 182 kts 92°
2026-04-30 12:26 49.42937 -2.79617 2636 ft 182 kts 92°
2026-04-30 12:27 49.42995 -2.77684 2392 ft 180 kts 91°
2026-04-30 12:27 49.43051 -2.75829 2159 ft 167 kts 92°
2026-04-30 12:27 49.43101 -2.74123 1946 ft 153 kts 92°
2026-04-30 12:27 49.43147 -2.72582 1753 ft 136 kts 93°
2026-04-30 12:28 49.43187 -2.71181 1578 ft 128 kts 92°
2026-04-30 12:28 49.43225 -2.69835 1419 ft 124 kts 92°
2026-04-30 12:28 49.43262 -2.68527 1248 ft 122 kts 92°
2026-04-30 12:28 49.43297 -2.67238 1079 ft 121 kts 90°
2026-04-30 12:29 49.43339 -2.65960 941 ft 120 kts 89°
2026-04-30 12:29 49.43378 -2.64662 777 ft 121 kts 89°
2026-04-30 12:29 49.43414 -2.63368 638 ft 121 kts 88°
2026-04-30 12:29 49.43445 -2.62092 448 ft 118 kts 90°
2026-04-30 12:30 49.43482 -2.60859 312 ft 105 kts 88°
2026-04-30 12:30 49.43500 -2.60106 315 ft 31 kts 87°
2026-04-30 12:30 49.43507 -2.59834 325 ft 24 kts 88°
2026-04-30 12:30 49.43514 -2.59569 331 ft 26 kts 88°
2026-04-30 12:31 49.43520 -2.59332 335 ft 17 kts 88°
2026-04-30 12:31 49.43519 -2.59218 334 ft 8 kts 112°
2026-04-30 12:31 49.43457 -2.59198 334 ft 11 kts 177°
2026-04-30 12:31 49.43395 -2.59203 334 ft 8 kts 199°
2026-04-30 12:32 49.43371 -2.59283 335 ft 10 kts 266°
2026-04-30 12:32 49.43367 -2.59401 332 ft 12 kts 267°
2026-04-30 12:32 49.43363 -2.59496 328 ft 5 kts 257°
2026-04-30 12:32 49.43334 -2.59513 332 ft 4 kts 178°
2026-04-30 12:33 49.43304 -2.59511 330 ft 3 kts 178°
2026-04-30 12:33 49.43294 -2.59511 329 ft 0 kts 178°